Hourly Weather Ruzhampol

Today, 21 April, Wednesday

Time Temperature Precipitation Wind Pressure Humidity
00:00 +6°C° 0 mm 1 mps 738 mmHg 88%
01:00 +6°C° 0 mm 1 mps 738 mmHg 89%
02:00 +4°C° 0 mm 0 mps 738 mmHg 89%
03:00 +4°C° 0 mm 0 mps 738 mmHg 90%
04:00 +3°C° 0 mm 0 mps 738 mmHg 91%
05:00 +3°C° 0 mm 0 mps 737 mmHg 92%
06:00 +4°C° 0 mm 0 mps 737 mmHg 87%
07:00 +5°C° 0 mm 0 mps 738 mmHg 83%
08:00 +6°C° 0 mm 0 mps 738 mmHg 78%
09:00 +8°C° 0.1 mm 1 mps 737 mmHg 76%
10:00 +9°C° 0.1 mm 1 mps 737 mmHg 75%
11:00 +9°C° 0.1 mm 1 mps 737 mmHg 74%
12:00 +9°C° 0.1 mm 2 mps 737 mmHg 68%
13:00 +12°C° 0.1 mm 2 mps 737 mmHg 63%
14:00 +13°C° 0.1 mm 2 mps 737 mmHg 57%
15:00 +13°C° 0.2 mm 2 mps 737 mmHg 59%
16:00 +13°C° 0.2 mm 2 mps 736 mmHg 60%
17:00 +13°C° 0.2 mm 2 mps 736 mmHg 61%
18:00 +10°C° 0.1 mm 2 mps 736 mmHg 67%
19:00 +9°C° 0.1 mm 2 mps 737 mmHg 73%
20:00 +8°C° 0.1 mm 2 mps 737 mmHg 79%
21:00 +7°C° 0 mm 2 mps 737 mmHg 81%
22:00 +7°C° 0 mm 2 mps 737 mmHg 82%
23:00 +6°C° 0 mm 2 mps 737 mmHg 84%

Tomorrow, 22 April, Thursday

Time Temperature Precipitation Wind Pressure Humidity
00:00 +6°C° 0 mm 2 mps 737 mmHg 85%
01:00 +6°C° 0 mm 2 mps 737 mmHg 86%
02:00 +6°C° 0 mm 2 mps 737 mmHg 86%
03:00 +6°C° 0 mm 2 mps 737 mmHg 88%
04:00 +6°C° 0 mm 2 mps 737 mmHg 89%
05:00 +5°C° 0 mm 2 mps 737 mmHg 90%
06:00 +7°C° 0 mm 3 mps 737 mmHg 86%
07:00 +8°C° 0 mm 3 mps 737 mmHg 83%
08:00 +8°C° 0 mm 4 mps 737 mmHg 79%
09:00 +9°C° 0.5 mm 5 mps 737 mmHg 72%
10:00 +12°C° 0.5 mm 5 mps 737 mmHg 64%
11:00 +13°C° 0.5 mm 6 mps 737 mmHg 57%
12:00 +11°C° 0.4 mm 6 mps 737 mmHg 59%
13:00 +11°C° 0.4 mm 6 mps 737 mmHg 61%
14:00 +11°C° 0.4 mm 7 mps 738 mmHg 63%
15:00 +10°C° 0.1 mm 6 mps 738 mmHg 63%
16:00 +9°C° 0.1 mm 6 mps 738 mmHg 64%
17:00 +9°C° 0.1 mm 5 mps 738 mmHg 65%
18:00 +7°C° 0 mm 4 mps 738 mmHg 64%
19:00 +6°C° 0 mm 4 mps 738 mmHg 62%
20:00 +5°C° 0 mm 3 mps 739 mmHg 61%
21:00 +4°C° 0 mm 3 mps 739 mmHg 64%
22:00 +4°C° 0 mm 4 mps 739 mmHg 67%
23:00 +3°C° 0 mm 4 mps 739 mmHg 69%

Day after tomorrow, 23 April, Friday

Time Temperature Precipitation Wind Pressure Humidity
00:00 +3°C° 0 mm 4 mps 739 mmHg 73%
01:00 +1°C° 0 mm 4 mps 739 mmHg 76%
02:00 0°C° 0 mm 4 mps 739 mmHg 80%
03:00 0°C° 0 mm 4 mps 739 mmHg 82%
04:00 -1°C° 0 mm 4 mps 739 mmHg 84%
05:00 -1°C° 0 mm 4 mps 740 mmHg 86%
06:00 0°C° 0 mm 4 mps 740 mmHg 80%
07:00 +1°C° 0 mm 5 mps 740 mmHg 73%
08:00 +2°C° 0 mm 5 mps 740 mmHg 66%
09:00 +3°C° 0 mm 6 mps 740 mmHg 63%
10:00 +3°C° 0 mm 6 mps 740 mmHg 61%
11:00 +4°C° 0 mm 6 mps 740 mmHg 58%
12:00 +4°C° 0.2 mm 6 mps 740 mmHg 58%
13:00 +4°C° 0.2 mm 6 mps 740 mmHg 58%
14:00 +6°C° 0.2 mm 5 mps 740 mmHg 57%
15:00 +6°C° 0.2 mm 5 mps 740 mmHg 57%
16:00 +6°C° 0.2 mm 5 mps 740 mmHg 57%
17:00 +5°C° 0.2 mm 5 mps 740 mmHg 56%
18:00 +4°C° 0.1 mm 4 mps 740 mmHg 64%
19:00 +3°C° 0.1 mm 4 mps 740 mmHg 72%
20:00 +1°C° 0.1 mm 3 mps 740 mmHg 79%
21:00 +1°C° 0 mm 3 mps 740 mmHg 83%
22:00 +1°C° 0 mm 3 mps 740 mmHg 86%
23:00 -1°C° 0 mm 4 mps 740 mmHg 90%

24 April, Saturday

Time Temperature Precipitation Wind Pressure Humidity
00:00 -1°C° 0 mm 4 mps 740 mmHg 92%
01:00 -1°C° 0 mm 4 mps 740 mmHg 93%
02:00 -2°C° 0 mm 4 mps 740 mmHg 94%
03:00 -2°C° 0.2 mm 4 mps 740 mmHg 95%
04:00 -2°C° 0.2 mm 4 mps 740 mmHg 95%
05:00 -2°C° 0.2 mm 4 mps 739 mmHg 96%
06:00 -1°C° 0.2 mm 5 mps 740 mmHg 93%
07:00 -1°C° 0.2 mm 5 mps 740 mmHg 90%
08:00 -2°C° 0.2 mm 6 mps 740 mmHg 88%
09:00 -1°C° 0.2 mm 6 mps 740 mmHg 85%
10:00 +1°C° 0.2 mm 6 mps 740 mmHg 83%
11:00 +1°C° 0.2 mm 6 mps 740 mmHg 80%
12:00 +2°C° 0.3 mm 6 mps 740 mmHg 76%
13:00 +3°C° 0.3 mm 6 mps 740 mmHg 71%
14:00 +3°C° 0.3 mm 6 mps 740 mmHg 67%
15:00 +3°C° 0.2 mm 6 mps 740 mmHg 67%
16:00 +3°C° 0.2 mm 5 mps 740 mmHg 67%
17:00 +3°C° 0.2 mm 5 mps 740 mmHg 67%
18:00 +3°C° 0.1 mm 4 mps 740 mmHg 72%
19:00 +1°C° 0.1 mm 4 mps 740 mmHg 77%
20:00 0°C° 0.1 mm 3 mps 740 mmHg 83%
21:00 0°C° 0 mm 3 mps 740 mmHg 84%
22:00 -1°C° 0 mm 3 mps 740 mmHg 85%
23:00 -2°C° 0 mm 3 mps 740 mmHg 87%

25 April, Sunday

Time Temperature Precipitation Wind Pressure Humidity
00:00 -3°C° 0 mm 4 mps 740 mmHg 87%
01:00 -4°C° 0 mm 4 mps 740 mmHg 88%
02:00 -4°C° 0 mm 4 mps 740 mmHg 89%
03:00 -4°C° 0.1 mm 4 mps 739 mmHg 91%
04:00 -5°C° 0.1 mm 5 mps 739 mmHg 93%
05:00 -4°C° 0.1 mm 6 mps 739 mmHg 95%
06:00 -4°C° 0.5 mm 6 mps 738 mmHg 95%
07:00 -3°C° 0.5 mm 7 mps 738 mmHg 95%
08:00 -2°C° 0.5 mm 7 mps 738 mmHg 95%
09:00 -2°C° 0.4 mm 7 mps 738 mmHg 93%
10:00 -1°C° 0.4 mm 7 mps 739 mmHg 91%
11:00 -1°C° 0.4 mm 7 mps 739 mmHg 90%
12:00 0°C° 0.1 mm 7 mps 739 mmHg 83%
13:00 +2°C° 0.1 mm 7 mps 739 mmHg 77%
14:00 +2°C° 0.1 mm 6 mps 739 mmHg 71%
15:00 +2°C° 0.2 mm 6 mps 739 mmHg 73%
16:00 +2°C° 0.2 mm 6 mps 739 mmHg 76%
17:00 +2°C° 0.2 mm 6 mps 739 mmHg 78%
18:00 +1°C° 0.1 mm 5 mps 739 mmHg 83%
19:00 0°C° 0.1 mm 5 mps 740 mmHg 87%
20:00 -1°C° 0.1 mm 5 mps 740 mmHg 91%
21:00 -1°C° 0 mm 5 mps 740 mmHg 91%
22:00 -1°C° 0 mm 5 mps 740 mmHg 91%
23:00 -1°C° 0 mm 5 mps 740 mmHg 91%

26 April, Monday

Time Temperature Precipitation Wind Pressure Humidity
00:00 -1°C° 0 mm 5 mps 740 mmHg 89%
01:00 -1°C° 0 mm 5 mps 740 mmHg 86%
02:00 -2°C° 0 mm 5 mps 740 mmHg 84%
03:00 -2°C° 0 mm 4 mps 740 mmHg 84%
04:00 -2°C° 0 mm 4 mps 740 mmHg 84%
05:00 -3°C° 0 mm 4 mps 740 mmHg 85%
06:00 -2°C° 0 mm 4 mps 741 mmHg 83%
07:00 -2°C° 0 mm 4 mps 741 mmHg 82%
08:00 -2°C° 0 mm 4 mps 741 mmHg 81%
09:00 -1°C° 0 mm 4 mps 741 mmHg 77%
10:00 0°C° 0 mm 4 mps 741 mmHg 73%
11:00 0°C° 0 mm 4 mps 741 mmHg 70%
12:00 +1°C° 0.1 mm 5 mps 741 mmHg 69%
13:00 +2°C° 0.1 mm 5 mps 741 mmHg 68%
14:00 +2°C° 0.1 mm 5 mps 741 mmHg 67%
15:00 +2°C° 0 mm 5 mps 741 mmHg 69%
16:00 +2°C° 0 mm 5 mps 741 mmHg 70%
17:00 +2°C° 0 mm 5 mps 741 mmHg 72%
18:00 +2°C° 0 mm 5 mps 741 mmHg 77%
19:00 +1°C° 0 mm 4 mps 741 mmHg 81%
20:00 0°C° 0 mm 4 mps 741 mmHg 86%
21:00 +1°C° 0 mm 4 mps 741 mmHg 87%
22:00 +1°C° 0 mm 5 mps 741 mmHg 89%
23:00 +1°C° 0 mm 5 mps 741 mmHg 91%
Show more